TimeEST,TemperatureF,Dew PointF,Humidity,Sea Level PressureIn,VisibilityMPH,Wind Direction,Wind SpeedMPH,Gust SpeedMPH,PrecipitationIn,Events,Conditions,WindDirDegrees,DateUTC
12:35 AM,30.2,28.4,93,30.35,10.0,Calm,Calm,-,N/A,,Clear,0,2013-02-10 05:35:00
12:55 AM,30.2,28.4,93,30.35,10.0,Calm,Calm,-,N/A,,Clear,0,2013-02-10 05:55:00
1:15 AM,32.0,28.4,87,30.35,10.0,Calm,Calm,-,N/A,,Clear,0,2013-02-10 06:15:00
1:35 AM,32.0,28.4,87,30.35,10.0,Calm,Calm,-,N/A,,Clear,0,2013-02-10 06:35:00
2:15 AM,32.0,28.4,87,30.35,10.0,Calm,Calm,-,N/A,,Clear,0,2013-02-10 07:15:00
2:35 AM,32.0,30.2,93,30.36,10.0,Calm,Calm,-,N/A,,Clear,0,2013-02-10 07:35:00
3:15 AM,32.0,30.2,93,30.36,10.0,Calm,Calm,-,N/A,,Clear,0,2013-02-10 08:15:00
3:35 AM,32.0,28.4,87,30.36,10.0,NE,3.5,-,N/A,,Clear,50,2013-02-10 08:35:00
3:55 AM,32.0,28.4,87,30.36,10.0,Calm,Calm,-,N/A,,Clear,0,2013-02-10 08:55:00
4:15 AM,32.0,30.2,93,30.36,10.0,Calm,Calm,-,N/A,,Clear,0,2013-02-10 09:15:00
4:35 AM,32.0,32.0,100,30.36,10.0,Calm,Calm,-,N/A,,Clear,0,2013-02-10 09:35:00
4:55 AM,32.0,30.2,93,30.36,10.0,Calm,Calm,-,N/A,,Clear,0,2013-02-10 09:55:00
5:15 AM,32.0,30.2,93,30.37,10.0,Calm,Calm,-,N/A,,Clear,0,2013-02-10 10:15:00
5:35 AM,32.0,28.4,87,30.37,10.0,Calm,Calm,-,N/A,,Clear,0,2013-02-10 10:35:00
5:55 AM,32.0,28.4,87,30.37,10.0,Calm,Calm,-,N/A,,Clear,0,2013-02-10 10:55:00
6:15 AM,32.0,30.2,93,30.38,10.0,Calm,Calm,-,N/A,,Clear,0,2013-02-10 11:15:00
6:35 AM,32.0,28.4,87,30.39,10.0,Calm,Calm,-,N/A,,Clear,0,2013-02-10 11:35:00
6:55 AM,32.0,28.4,87,30.40,10.0,Calm,Calm,-,N/A,,Clear,0,2013-02-10 11:55:00
7:15 AM,33.8,32.0,93,30.41,10.0,Calm,Calm,-,N/A,,Clear,0,2013-02-10 12:15:00
7:35 AM,32.0,32.0,100,30.44,10.0,Calm,Calm,-,N/A,,Clear,0,2013-02-10 12:35:00
8:15 AM,33.8,32.0,93,30.42,10.0,Calm,Calm,-,N/A,,Clear,0,2013-02-10 13:15:00
8:35 AM,35.6,30.2,81,30.43,10.0,Calm,Calm,-,N/A,,Clear,0,2013-02-10 13:35:00
8:55 AM,37.4,28.4,70,30.44,10.0,Calm,Calm,-,N/A,,Clear,0,2013-02-10 13:55:00
9:15 AM,39.2,26.6,61,30.43,10.0,Calm,Calm,-,N/A,,Clear,0,2013-02-10 14:15:00
9:35 AM,44.6,24.8,46,30.43,10.0,Calm,Calm,-,N/A,,Clear,0,2013-02-10 14:35:00
9:55 AM,46.4,24.8,43,30.43,10.0,ESE,4.6,-,N/A,,Clear,120,2013-02-10 14:55:00
10:15 AM,48.2,23.0,37,30.42,10.0,Calm,Calm,-,N/A,,Clear,0,2013-02-10 15:15:00
10:35 AM,50.0,19.4,30,30.44,10.0,East,3.5,-,N/A,,Clear,100,2013-02-10 15:35:00
11:15 AM,53.6,17.6,24,30.44,10.0,Calm,Calm,-,N/A,,Clear,0,2013-02-10 16:15:00
11:55 AM,53.6,17.6,24,30.42,10.0,ESE,4.6,-,N/A,,Clear,120,2013-02-10 16:55:00
12:15 PM,55.4,17.6,23,30.41,10.0,SE,3.5,-,N/A,,Clear,140,2013-02-10 17:15:00
12:35 PM,55.4,19.4,25,30.38,10.0,SSE,6.9,-,N/A,Rain,Light Rain,150,2013-02-10 17:35:00
1:15 PM,57.2,19.4,23,30.37,10.0,SSE,3.5,-,N/A,,Clear,150,2013-02-10 18:15:00
1:35 PM,59.0,23.0,25,30.35,10.0,ESE,4.6,-,N/A,,Clear,110,2013-02-10 18:35:00
1:55 PM,59.0,24.8,27,30.33,10.0,ESE,6.9,-,N/A,,Clear,120,2013-02-10 18:55:00
2:15 PM,59.0,28.4,31,30.31,10.0,ESE,3.5,-,N/A,,Clear,120,2013-02-10 19:15:00
2:35 PM,59.0,30.2,34,30.29,10.0,South,3.5,-,N/A,,Clear,180,2013-02-10 19:35:00
2:55 PM,60.8,32.0,34,30.28,10.0,ESE,4.6,-,N/A,,Clear,110,2013-02-10 19:55:00
3:15 PM,59.0,33.8,39,30.29,10.0,SSE,6.9,-,N/A,,Clear,150,2013-02-10 20:15:00
3:35 PM,59.0,35.6,42,30.28,10.0,SSE,3.5,-,N/A,,Clear,150,2013-02-10 20:35:00
3:55 PM,59.0,35.6,42,30.28,10.0,Calm,Calm,-,N/A,,Clear,0,2013-02-10 20:55:00
4:15 PM,59.0,37.4,45,30.28,10.0,SSE,5.8,-,N/A,,Clear,150,2013-02-10 21:15:00
4:35 PM,59.0,37.4,45,30.25,10.0,ESE,4.6,-,N/A,,Scattered Clouds,120,2013-02-10 21:35:00
4:55 PM,59.0,39.2,48,30.26,10.0,SE,3.5,-,N/A,,Scattered Clouds,130,2013-02-10 21:55:00
5:15 PM,57.2,39.2,51,30.25,10.0,Calm,Calm,-,N/A,,Mostly Cloudy,0,2013-02-10 22:15:00
5:35 PM,57.2,41.0,55,30.24,10.0,Calm,Calm,-,N/A,,Partly Cloudy,0,2013-02-10 22:35:00
5:55 PM,57.2,41.0,55,30.25,10.0,Calm,Calm,-,N/A,,Scattered Clouds,0,2013-02-10 22:55:00
6:15 PM,57.2,41.0,55,30.25,10.0,SE,3.5,-,N/A,,Mostly Cloudy,140,2013-02-10 23:15:00
6:35 PM,55.4,42.8,63,30.24,10.0,Calm,Calm,-,N/A,,Scattered Clouds,0,2013-02-10 23:35:00
6:55 PM,55.4,42.8,63,30.24,10.0,Calm,Calm,-,N/A,,Partly Cloudy,0,2013-02-10 23:55:00
7:15 PM,55.4,42.8,63,30.22,10.0,East,4.6,-,N/A,,Partly Cloudy,100,2013-02-11 00:15:00
7:35 PM,55.4,42.8,63,30.22,10.0,East,4.6,-,N/A,,Mostly Cloudy,100,2013-02-11 00:35:00
7:55 PM,55.4,42.8,63,30.22,10.0,Calm,Calm,-,N/A,,Scattered Clouds,0,2013-02-11 00:55:00
8:15 PM,55.4,44.6,67,30.23,10.0,Calm,Calm,-,N/A,Rain,Light Rain,0,2013-02-11 01:15:00
8:35 PM,53.6,46.4,77,30.25,10.0,Calm,Calm,-,N/A,,Scattered Clouds,0,2013-02-11 01:35:00
8:55 PM,55.4,46.4,72,30.27,10.0,Calm,Calm,-,N/A,Rain,Light Rain,0,2013-02-11 01:55:00
9:15 PM,50.0,50.0,100,30.28,7.0,Calm,Calm,-,N/A,Rain,Light Rain,0,2013-02-11 02:15:00
9:35 PM,50.0,50.0,100,30.29,5.0,Calm,Calm,-,0.02,Rain,Light Rain,0,2013-02-11 02:35:00
9:55 PM,50.0,50.0,100,30.28,3.0,Calm,Calm,-,0.04,Rain,Light Rain,0,2013-02-11 02:55:00
10:15 PM,50.0,50.0,100,30.27,4.0,Calm,Calm,-,0.02,Rain,Light Rain,0,2013-02-11 03:15:00
10:35 PM,50.0,50.0,100,30.26,3.0,Calm,Calm,-,0.05,Rain,Light Rain,0,2013-02-11 03:35:00
10:55 PM,50.0,50.0,100,30.24,3.0,ESE,4.6,-,0.08,Rain,Light Rain,120,2013-02-11 03:55:00
11:15 PM,50.0,50.0,100,30.22,4.0,ESE,3.5,-,0.02,Rain,Light Rain,110,2013-02-11 04:15:00
11:35 PM,50.0,50.0,100,30.22,5.0,SE,4.6,-,0.03,Rain,Light Rain,140,2013-02-11 04:35:00
11:55 PM,50.0,50.0,100,30.21,5.0,SE,3.5,-,0.04,Rain,Light Rain,130,2013-02-11 04:55:00